Weather WX

World > North America > United States > Arizona

Overgaard, Arizona Regional Weather

Lat: 34.39N, Lon: 110.55W
Wx Zone: AZZ016
Feedback

Overgaard, AZ Regional Weather

Expires:201907201700;;358254
ASUS45 KPSR 201610
RWRAZ 

ARIZONA HOURLY REGIONAL WEATHER ROUNDUP
NATIONAL WEATHER SERVICE PHOENIX AZ
900 AM MST SAT JUL 20 2019

NOTE: FAIR INDICATES FEW OR NO CLOUDS BELOW 12,000 FEET WITH NO
SIGNIFICANT WEATHER AND/OR OBSTRUCTIONS TO VISIBILITY.


AZZ004>008-015-016-018-201700-
NORTH CENTRAL ARIZONA
  
CITY           SKY/WX    TMP DP  RH WIND       PRES   REMARKS
GRAND CANYON   SUNNY     75  28  17 SW10      30.24R                  
WILLIAMS       SUNNY     77  25  14 S12       30.24                   
PRESCOTT       SUNNY     82  34  17 S8        30.13S                  
FLAGSTAFF      SUNNY     74  26  16 SW8       30.27S                  
PAYSON         SUNNY     82  30  15 W8        30.18                   
PAGE           SUNNY     84  17   8 N6        30.04S                  
$$


SKY/WX - Weather  TMP - Temperature  DP - Dew Point  RH - Relative Humidity
WIND - Wind Direction/Speed PRES - Barometric Pressure VSB - Visibility
WCI - Wind Chill Index E13G22 Wind - East Wind 13 mph/Gusts of 22 mph